Location: downtown San Diego
(32.7310°N, 117.1990°W)
Time: 17:42:16
(UTC-07:00)

USA 245 - Pass Details

Date: 14 June 2018
Orbit: 264 x 1006 km, 97.9° (Epoch: 18 June)

Event Time Altitude Azimuth Distance (km) Brightness Sun altitude
Exits shadow 21:46:14 34° 133° (SE) 1,340 4.7 -19.0°
Maximum altitude 21:48:25 56° 73° (ENE) 1,034 4.5 -19.3°
Drops below altitude 10° 21:54:24 10° 357° (N) 2,705 7.5 -20.2°
Sets 21:57:04 0° 353° (N) 3,702 8.4 -20.5°
